Tracking 23762 objects as of 21-Oct-2021
HD Live streaming from Space Station
objects crossing your sky now

RITE TARGET 2

Track RITE TARGET 2 now!
10-day predictions
RITE TARGET 2 is classified as:


NORAD ID: 28455
Int'l Code: 2002-056G
Perigee: 782.8 km
Apogee: 797.0 km
Inclination: 98.5 °
Period: 100.5 minutes
Semi major axis: 7160 km
RCS: 0.0143 m2 (small)
Launch date: December 14, 2002
Source: Japan (JPN)
Launch site: TANEGASHIMA SPACE CENTER (TNSTA)
aabbcc
Your satellite tracking list
Your tracking list is empty




NASA's NSSDC Master Catalog

Two Line Element Set (TLE):
1 28455U 02056G   21293.61387252  .00000224  00000-0  98440-4 0  9995
2 28455  98.5373 242.7377 0009955 192.2047 167.8898 14.32689267431144
Source of the keplerian elements: AFSPC